Regional Weather Roundup
Issued by NWS

Home | Current Version | Previous Version | Text Only | Print | Product List | Glossary Off
Versions: 1 2 3 4 5 6 7 8 9 10 11 12 13 14 15 16 17 18 19 20 21 22 23 24 25 26 27 28 29 30 31 32 33 34 35 36 37 38 39 40 41 42 43 44 45 46 47 48 49 50

000
ASUS43 KTOP 220408
RWRKS

WEATHER ROUNDUP FOR KANSAS
NATIONAL WEATHER SERVICE GOODLAND KS
1100 PM CDT MON AUG 21 2017

NOTE:  "FAIR" INDICATES FEW OR NO CLOUDS BELOW 12,000 FEET WITH NO
SIGNIFICANT WEATHER AND/OR OBSTRUCTIONS TO VISIBILITY.

KSZ001>006-013>018-027>032-041>047-220500-
NORTHWEST KANSAS

CITY           SKY/WX    TMP DP  RH WIND       PRES   REMARKS
GOODLAND       CLEAR     73  68  84 N13       30.10R
HAYS           CLEAR     77  66  68 SW9       29.97R
HILL CITY      MOCLDY    75  68  78 NW5       29.99R
RUSSELL        CLEAR     77  65  66 S10       29.95R
$$

KSZ061>065-074>080-084>089-220500-
SOUTHWEST KANSAS

CITY           SKY/WX    TMP DP  RH WIND       PRES   REMARKS
DODGE CITY     CLEAR     76  66  71 SW10      30.03R
ELKHART          N/A     71  68  90 S8          N/A
GARDEN CITY    CLEAR     72  65  78 S5        30.03R
GREAT BEND     CLEAR     77  68  73 S7        29.98R
LIBERAL        CLEAR     73  67  81 S9        30.07R
PRATT          CLOUDY    75  69  82 SW7       30.00S
$$

KSZ066>073-081>083-090>101-220500-
SOUTHEAST KANSAS

CITY           SKY/WX    TMP DP  RH WIND       PRES   REMARKS
CHANUTE        CLOUDY    83  74  74 S14       30.00R
COFFEYVILLE    CLEAR     82  75  79 S12       30.00R
HUTCHINSON     PTCLDY    77  71  82 S3        29.97R
MEDICINE LODGE   N/A     80  70  71 S8        29.98R
NEWTON         CLOUDY    79  70  74 S9        29.98R
PARSONS        CLOUDY    82  74  76 S9        30.01R
WICHITA INTL   CLOUDY    79  73  82 S10       29.97R
WICHITA JABRA  PTCLDY    77  74  90 S7        29.98R
WICHITA MCCONL CLEAR     77  71  83 S8        29.98R
WINFIELD       CLOUDY    82  71  69 S13       30.00R
$$

KSZ007>012-019>026-033>040-048>060-102>105-220500-
NORTHEAST KANSAS

CITY           SKY/WX    TMP DP  RH WIND       PRES   REMARKS
CONCORDIA      PTCLDY    78  72  81 S8        29.94R
EMPORIA          N/A     74  71  91 S20G28    29.96R
LAWRENCE       TSTM      70  70 100 N14G21    30.02R VSB 3/4
MANHATTAN      LGT RAIN  75  74  96 N3        29.94R
MARYSVILLE     CLOUDY    72  68  88 CALM      29.95R
OLATHE IND     TSTM      73  72  96 SE13G26   29.99R FOG
OLATHE EXE     TSTM      69  69 100 MISG      30.03R VSB 1/2
SALINA         CLOUDY    83  70  64 S9        29.95R
TOPEKA BILLARD TSTM      71  71 100 E8        29.96F FOG
TOPEKA FORBES  CLOUDY    73  72  96 E9        29.96F
$$




USA.gov is the U.S. government's official web portal to all federal, state and local government web resources and services.